Regional Weather Roundup
Issued by NWS

Home | Current Version | Previous Version | Graphics & Text | Print | Product List | Glossary On
Versions: 1 2 3 4 5 6 7 8 9 10 11 12 13 14 15 16 17 18 19 20 21 22 23 24 25 26 27 28 29 30 31 32 33 34 35 36 37 38 39 40 41 42 43 44 45 46 47 48 49 50
000
ASUS43 KOAX 192002
RWRNE

WEATHER ROUNDUP FOR NEBRASKA
NATIONAL WEATHER SERVICE OMAHA NE
300 PM CDT FRI SEP 19 2014

NOTES: SATELLITE DATA IS BEING USED TO AUGMENT CLOUD COVER ABOVE
       12000 FEET.
       "FAIR" INDICATES FEW OR NO CLOUDS BELOW 12,000 FEET WITH NO
       SIGNIFICANT WEATHER AND/OR OBSTRUCTIONS TO VISIBILITY.

  * THESE STATIONS DO NOT REPORT WEATHER SUCH AS RAIN...SNOW OR FOG.

NEZ001>004-019>022-054>056-192100-
NEBRASKA PANHANDLE

CITY           SKY/WX    TMP DP  RH WIND       PRES   REMARKS
SCOTTSBLUFF    SUNNY     87  49  26 NW7       29.89F
ALLIANCE       SUNNY     87  48  25 NW9       29.87F
CHADRON        MOSUNNY   87  50  27 W14G20    29.84F
KIMBALL        SUNNY     88  42  20 W3G9      29.93F
SIDNEY         SUNNY     89  46  22 NE7       29.92F
$$

NEZ057>060-069>072-079>082-192100-
SOUTHWEST NEBRASKA

CITY           SKY/WX    TMP DP  RH WIND       PRES   REMARKS
NORTH PLATTE   SUNNY     92  54  27 S20G26    29.80F HX  90
IMPERIAL       SUNNY     92  50  23 SW12G24   29.84F
LEXINGTON      SUNNY     90  61  37 SW20G28   29.81F HX  90
MCCOOK         SUNNY     93  56  28 S22       29.84F HX  91
OGALLALA       SUNNY     93  50  22 W10       29.83F HX  90
$$

NEZ005>010-023>029-035>040-094-192100-
NORTH CENTRAL NEBRASKA

CITY           SKY/WX    TMP DP  RH WIND       PRES   REMARKS
VALENTINE      SUNNY     88  54  31 VRB3      29.79F
AINSWORTH      SUNNY     84  57  39 N7        29.80S
BROKEN BOW     SUNNY     90  62  39 SW17      29.80F HX  90
O`NEILL        SUNNY     92  59  32 SW17      29.73F HX  91
ORD            SUNNY     86  65  49 S16G26    29.77F
THEDFORD       SUNNY     91  55  29 NW12G17   29.80S
$$

NEZ041-046>049-061>064-073>077-083>087-192100-
SOUTH CENTRAL NEBRASKA

CITY           SKY/WX    TMP DP  RH WIND       PRES   REMARKS
GRAND ISLAND   SUNNY     89  62  40 SW18G32   29.83F
AURORA         SUNNY     87  57  35 S20G28    29.83F
HASTINGS       SUNNY     87  57  35 S14G24    29.85F
HEBRON         SUNNY     88  62  41 SW12G21   29.88F
HOLDREGE       SUNNY     87  60  39 SW17G24   29.85F
KEARNEY *      SUNNY     88  63  42 S20G29    29.85F
YORK           SUNNY     86  64  48 SW22      29.84F
$$

NEZ011>018-030>034-042>045-192100-
NORTHEAST NEBRASKA

CITY           SKY/WX    TMP DP  RH WIND       PRES   REMARKS
NORFOLK        SUNNY     89  64  43 SW25G33   29.75F HX  90
ALBION         SUNNY     87  62  43 S16G26    29.79F
BLAIR          SUNNY     86  68  54 S16       29.82F
COLUMBUS *     SUNNY     88  64  45 SW18G24   29.80F
FREMONT        SUNNY     88  64  44 S14G24    29.81F
TEKAMAH        SUNNY     88  66  48 S20G33    29.78F HX  90
WAYNE          SUNNY     89  64  44 S23G31    29.74F HX  90
$$

NEZ050>053-065>068-078-088>093-192100-
SOUTHEAST NEBRASKA

CITY           SKY/WX    TMP DP  RH WIND       PRES   REMARKS
LINCOLN        SUNNY     90  65  43 S20G25    29.83F HX  92
OMAHA EPPLEY   MOSUNNY   82  67  60 S16       29.83F
BEATRICE       SUNNY     88  66  47 S21       29.87F HX  90
FALLS CITY     SUNNY     79  68  69 S14       29.91F
NEBRASKA CITY  SUNNY     82  61  47 S17       29.88F
PLATTSMOUTH    SUNNY     84  66  54 S13G18    29.86F
$$

NEZ044-045-051>053-067-192100-
OMAHA AREA

CITY           SKY/WX    TMP DP  RH WIND       PRES   REMARKS
OMAHA EPPLEY   MOSUNNY   82  67  60 S16       29.83F
BLAIR          SUNNY     86  68  54 S16       29.82F
FREMONT        SUNNY     88  64  44 S14G24    29.81F
MILLARD        SUNNY     86  68  54 S12G20    29.82F HX  90
OFFUTT AFB     SUNNY     82  72  73 S13       29.83F
PLATTSMOUTH    SUNNY     84  66  54 S13G18    29.86F
WAHOO          FAIR      89  61  37 S20G26    29.81F
$$


USA.gov is the U.S. government's official web portal to all federal, state and local government web resources and services.